カタログに戻る

COSMOS 970 DEB

運用中LEO
NORAD 12942·DEBRIS·🇷🇺 Russia

打ち上げ Dec 21, 1977 から Baikonur Cosmodrome

Loading…

次のパス (今後24時間)

TLE

最新Source: Space-Track

元期: Sep 14, 2026, 03:22 UTC

1 12942U 77121AZ  26257.14071449  .00000093  00000-0  30507-3 0  9998
2 12942  65.8310 312.9971 0104750 170.0609 208.6548 13.37901360205536

AllMySatでCOSMOS 970 DEBをリアルタイム追跡

Download on the App Store